Terminal Aerodrome Forecast
Issued by NWS

Home | Current Version | Previous Version | Text Only | Print | Product List | Glossary On
Versions: 1 2 3 4 5 6 7 8 9 10 11 12 13 14 15 16 17 18 19 20 21 22 23 24
000
FTUS44 KOUN 310527
TAFLAW
TAF
KLAW 310527Z 3106/0106 04009KT P6SM SKC
     FM311000 05008KT P6SM SCT050 BKN250
      TEMPO 3116/3120 4SM -TSRA BKN040CB BKN100
     FM312000 07010KT P6SM BKN060 BKN120 OVC200=

USA.gov is the U.S. government's official web portal to all federal, state and local government web resources and services.